www.pogodaiklimat.ru

Погода и климат >> Архив погоды >> Босния и Герцеговина >> Зеница


ПОГОДА в Зенице

  • Прогноз погоды в Зенице
  • Монитор погоды в Зенице

АРХИВ ПОГОДЫ в Зенице

Время (UTC), дата Ветер
(напр.,м/с)
 
Видим.   Явления Облачность Т
(С)
Тd
(С)
f
(%)
Тe
(С)
Тes
(С)
Комфортность P
(гПа)
Po
(гПа)
Тmin
(С)
Tmax
(С)
R
(мм)
R24
(мм)
S
(см)
13 11.09 С 1 20 км 4/3 1200 м
[Cu med, cong Ci fib]
+28.6 +17.8 52 +33 +40 очень
душно
1018.4 979.9
14 11.09 СЗ 2 н/о н/о +27.7 +17.1 52 +32 +32 очень
душно
1018.6 980.0
15 11.09 СЗ 2 н/о н/о +25.1 +16.5 59 +29 +29 душно 1019.5 980.5
16 11.09 С 2 н/о н/о +23.9 +15.8 60 +27 +27 жарко 1020.1 980.9
17 11.09 СЗ 1 н/о н/о +22.7 +16.0 66 +27 +27 душно 1020.6 981.3
18 11.09 Ю 1 н/о н/о +20.9 +16.8 77 +26 +26 душно 1021.5 981.9 +29.1
19 11.09 Ю 2 н/о н/о +19.8 +16.4 81 +23 +23 комфорт 1022.4 982.6
20 11.09 Ю 1 н/о н/о +19.3 +16.7 85 +22 +22 комфорт 1022.8 983.0
21 11.09 Ю 2 н/о н/о +18.5 +16.3 87 +20 +20 1023.4 983.4
23 11.09 Ю 1 н/о н/о +17.4 +15.9 91 +18 +18 1024.0 983.8
00 12.09 Ю 1 н/о н/о +16.8 +15.5 92 +18 +18 1024.1 983.8
01 12.09 Ю 1 н/о н/о +16.6 +15.3 92 +17 +17 1024.3 984.0
03 12.09 Ю 1 н/о н/о +15.6 +14.8 95 +16 +16 1024.8 984.3
05 12.09 Ю 1 н/о н/о +14.7 +13.7 94 +15 +15 1026.0 985.3
06 12.09 Ю 1 4000 м дымка 10/10 300 м
[St]
+15.3 +13.9 91 +16 +16 1026.5 985.9 +14.6
07 12.09 штиль 0 5000 м дымка 9/9 400 м
[St]
+17.3 +15.3 88 +17 +18 1026.9 986.6
08 12.09 В 1 10 км 5/3 1000 м
[Cu med, cong Ac trans]
+21.8 +17.2 75 +26 +31 душно 1026.6 986.9
09 12.09 З 1 20 км 6/1 1080 м
[Cu med, cong Ac trans Ci fib]
+23.9 +16.0 61 +27 +35 жарко 1026.5 987.1
10 12.09 СЗ 2 20 км 5/1 1200 м
[Cu med, cong Ac trans Ci fib]
+24.9 +15.6 56 +28 +36 жарко 1026.5 987.2
11 12.09 СЗ 2 20 км 6/3 1200 м
[Cu med, cong Ac trans Ci fib]
+25.8 +16.3 56 +29 +36 душно 1026.7 987.5
12 12.09 СЗ 2 20 км 6/3 1200 м
[Cu med, cong Ac trans Ci fib]
+24.7 +16.2 59 +28 +34 душно 1026.4 987.1
13 12.09 С 2 20 км 5/3 1200 м
[Cu med, cong Ac trans Ci fib]
+24.7 +14.3 52 +27 +32 жарко 1026.2 986.9
14 12.09 СЗ 2 н/о н/о +26.2 +15.2 51 +29 +29 жарко 1025.9 986.8
15 12.09 С 2 н/о н/о +26.3 +15.8 52 +29 +29 жарко 1025.9 986.8
16 12.09 С 2 н/о н/о +24.7 +15.7 57 +28 +28 душно 1026.5 987.2
17 12.09 С 1 н/о н/о +22.9 +15.0 61 +27 +27 душно 1027.3 987.7
18 12.09 Ю 1 н/о н/о +20.9 +15.9 73 +25 +25 комфорт 1028.1 988.2 +26.7
20 12.09 Ю 2 н/о н/о +17.9 +15.4 85 +18 +18 1029.5 989.2
21 12.09 Ю 1 н/о н/о +16.8 +15.0 89 +18 +18 1029.8 989.3
22 12.09 Ю 2 н/о н/о +15.9 +14.4 91 +16 +16 1030.3 989.6
23 12.09 Ю 1 н/о н/о +15.3 +14.0 92 +16 +16 1030.7 989.9
00 13.09 Ю 2 н/о н/о +15.3 +13.8 91 +15 +15 1030.6 989.8
01 13.09 Ю 1 н/о н/о +15.3 +13.7 90 +16 +16 1030.6 989.8
02 13.09 Ю 1 н/о н/о +15.1 +14.0 93 +16 +16 1030.6 989.8
03 13.09 Ю 1 н/о н/о +15.0 +13.7 92 +15 +15 1030.6 989.8
04 13.09 Ю 1 н/о н/о +15.0 +13.9 93 +15 +15 1030.7 989.9
05 13.09 Ю 1 н/о н/о +14.3 +13.5 95 +15 +15 1031.2 990.3
06 13.09 Ю 1 10 км 4/4 1000 м
[Cu med, cong]
+15.4 +13.8 90 +16 +17 1031.2 990.4 +14.2
07 13.09 В 1 20 км 3/3 1080 м
[Cu med, cong]
+19.1 +14.7 76 +22 +25 комфорт 1030.9 990.7
08 13.09 ЮВ 1 20 км 3/3 1200 м
[Cu med, cong]
+22.7 +15.7 65 +27 +32 душно 1030.2 990.5
09 13.09 С 2 20 км 4/4 1200 м
[Cu med, cong]
+25.7 +14.0 48 +28 +34 жарко 1029.4 990.1
10 13.09 СЗ 2 20 км 4/4 1200 м
[Cu med, cong]
+24.8 +15.0 54 +28 +35 жарко 1029.2 989.8
11 13.09 З 2 20 км 4/4 1200 м
[Cu med, cong]
+24.7 +13.5 50 +27 +34 жарко 1029.1 989.7
12 13.09 С 3 20 км 4/4 1200 м
[Cu med, cong]
+26.2 +14.7 49 +29 +34 жарко 1028.2 989.0
13 13.09 С 2 20 км 4/4 1200 м
[Cu med, cong]
+25.6 +12.3 44 +27 +32 жарко 1027.9 988.6
14 13.09 СЗ 2 н/о н/о +25.4 +12.0 43 +27 +27 жарко 1027.4 988.1
15 13.09 СЗ 2 н/о н/о +27.0 +13.5 43 +29 +29 жарко 1027.0 987.9
16 13.09 СЗ 2 н/о н/о +24.8 +12.2 45 +26 +26 жарко 1027.3 987.9
17 13.09 З 1 н/о н/о +21.5 +12.0 55 +24 +24 комфорт 1028.0 988.2
18 13.09 Ю 2 н/о н/о +18.5 +13.8 74 +20 +20 1029.1 988.8 +27.1
19 13.09 Ю 1 н/о н/о +16.4 +12.8 79 +17 +17 1030.1 989.5
20 13.09 Ю 2 н/о н/о +15.0 +12.6 86 +15 +15 1030.6 989.8
21 13.09 Ю 2 н/о н/о +14.0 +12.0 88 +13 +13 1030.9 989.9
22 13.09 Ю 2 н/о н/о +13.2 +11.7 91 +12 +12 1030.9 989.8
23 13.09 Ю 2 н/о н/о +12.5 +11.2 92 +12 +12 1031.0 989.8
00 14.09 Ю 1 н/о н/о +11.9 +10.6 92 +12 +12 1031.3 990.0
01 14.09 Ю 1 н/о н/о +11.4 +10.3 93 +11 +11 1031.0 989.6
02 14.09 Ю 1 н/о н/о +11.2 +10.1 93 +11 +11 1030.8 989.4
03 14.09 Ю 1 н/о н/о +11.1 +10.0 93 +11 +11 1030.8 989.4
04 14.09 штиль 0 н/о н/о +11.6 +10.3 92 +11 +11 1030.7 989.4
05 14.09 штиль 0 н/о н/о +12.1 +10.8 92 +11 +11 1031.0 989.7
06 14.09 штиль 0 н/о н/о +13.0 +11.4 90 +12 +12 1031.2 990.1 +11.1
07 14.09 штиль 0 н/о н/о +15.1 +12.2 83 +15 +15 1031.0 990.2
08 14.09 штиль 0 н/о н/о +16.9 +13.1 78 +17 +17 1030.6 990.1
09 14.09 штиль 0 н/о н/о +18.2 +13.0 72 +18 +18 1030.3 989.9
10 14.09 В 1 н/о н/о +21.4 +14.1 63 +24 +24 комфорт 1029.1 989.2
11 14.09 СВ 1 н/о н/о +25.9 +15.6 53 +29 +29 душно 1027.6 988.4
12 14.09 С 2 н/о н/о +27.3 +14.2 45 +30 +30 душно 1026.8 987.8
13 14.09 С 4 н/о н/о +26.2 +11.5 40 +27 +27 жарко 1026.7 987.5
14 14.09 С 3 н/о н/о +25.7 +12.3 43 +27 +27 жарко 1026.2 987.0
15 14.09 С 3 н/о н/о +25.5 +13.4 47 +28 +28 жарко 1025.8 986.6
16 14.09 С 2 н/о н/о +24.9 +13.4 49 +27 +27 жарко 1025.7 986.5
17 14.09 ЮЗ 1 н/о н/о +22.4 +14.3 60 +26 +26 жарко 1026.3 986.7
18 14.09 Ю 2 н/о н/о +19.0 +14.7 76 +21 +21 комфорт 1027.4 987.3 +28.1
19 14.09 Ю 2 н/о н/о +16.9 +13.8 82 +17 +17 1028.4 987.9
20 14.09 Ю 2 н/о н/о +15.4 +13.3 87 +15 +15 1028.9 988.2
21 14.09 Ю 2 н/о н/о +14.3 +12.7 90 +14 +14 1029.1 988.2
22 14.09 Ю 1 н/о н/о +13.5 +12.1 91 +14 +14 1029.2 988.2
23 14.09 Ю 1 н/о н/о +13.0 +11.6 91 +13 +13 1029.3 988.3
00 15.09 н/о
01 15.09 н/о н/о
02 15.09 н/о н/о
03 15.09 н/о н/о
04 15.09 н/о н/о
05 15.09 н/о н/о
06 15.09 н/о н/о +12.3
07 15.09 н/о н/о
08 15.09 н/о н/о
09 15.09 СВ 1 н/о н/о +17.3 +13.8 80 +18 +18 1027.8 987.4
10 15.09 СВ 1 н/о н/о +21.9 +15.1 65 +25 +25 комфорт 1026.3 986.6
11 15.09 С 1 н/о н/о +25.8 +14.6 50 +28 +28 жарко 1024.6 985.5
12 15.09 Ю 1 н/о н/о +28.6 +14.1 41 +31 +31 жарко 1023.4 984.7
13 15.09 СЗ 1 н/о н/о +29.7 +14.6 40 +32 +32 душно 1022.4 983.9
14 15.09 Ю 1 н/о н/о +30.0 +14.1 38 +32 +32 жарко 1021.6 983.1
15 15.09 З 1 н/о н/о +30.7 +16.5 42 +34 +34 очень
душно
1020.9 982.6
16 15.09 Ю 1 н/о н/о +27.7 +16.8 51 +31 +31 душно 1020.7 982.0
17 15.09 Ю 2 н/о н/о +22.9 +16.4 67 +28 +28 душно 1021.2 981.9
18 15.09 Ю 2 н/о н/о +19.4 +15.3 77 +22 +22 комфорт 1022.1 982.3 +30.7
19 15.09 Ю 2 н/о н/о +17.3 +14.4 83 +18 +18 1022.8 982.6
20 15.09 Ю 2 н/о н/о +15.9 +13.7 87 +16 +16 1023.3 982.9
21 15.09 Ю 2 н/о н/о +14.8 +13.2 90 +14 +14 1023.3 982.8
22 15.09 Ю 2 н/о н/о +13.8 +12.5 92 +13 +13 1023.5 982.8
23 15.09 Ю 2 н/о н/о +13.1 +11.8 92 +12 +12 1023.6 982.8
00 16.09 Ю 2 н/о н/о +12.4 +11.3 93 +11 +11 1023.5 982.6
01 16.09 Ю 2 н/о н/о +11.9 +11.0 94 +11 +11 1023.3 982.3
02 16.09 н/о н/о
03 16.09 н/о н/о
04 16.09 н/о н/о
05 16.09 н/о н/о
06 16.09 Ю 1 4000 м дымка 10/10 300 м
[St]
+13.0 +12.4 96 +13 +13 1023.3 982.5 +11.1
07 16.09 штиль 0 4000 м дымка 10/10 300 м
[St]
+13.8 +13.0 95 +13 +13 1023.1 982.5
08 16.09 штиль 0 6000 м дымка 9/9 480 м
[St]
+14.8 +13.6 93 +14 +15 1023.0 982.5
09 16.09 В 1 10 км 3/3 1000 м
[Cu med, cong]
+18.8 +13.9 73 +21 +29 комфорт 1021.9 982.0
10 16.09 СВ 1 20 км 3/1 1200 м
[Cu hum Ci fib]
+22.2 +15.6 66 +26 +37 душно 1020.4 981.0
11 16.09 СВ 1 20 км 3/1 1200 м
[Cu med, cong Ci fib]
+25.4 +15.7 55 +29 +40 душно 1018.9 980.0
12 16.09 СВ 1 20 км 3/1 1200 м
[Cu med, cong Ci fib]
+28.9 +15.8 45 +32 +43 душно 1017.3 978.9
13 16.09 В 1 20 км 4/1 1200 м
[Cu med, cong Ci fib]
+30.9 +10.8 29 +31 +39 жарко 1016.2 978.0
14 16.09 Ю 1 н/о н/о +32.4 +10.2 26 +32 +32 жарко 1015.2 977.2
15 16.09 Ю 1 н/о н/о +32.9 +11.8 28 +33 +33 жарко 1014.6 976.7
16 16.09 Ю 1 н/о н/о +28.8 +15.9 46 +32 +32 душно 1014.7 976.4
17 16.09 Ю 2 н/о н/о +23.4 +15.5 61 +28 +28 душно 1015.6 976.5
18 16.09 Ю 2 н/о н/о +19.7 +14.0 70 +22 +22 комфорт 1016.7 977.1 +32.9
19 16.09 ЮВ 2 н/о н/о +17.2 +13.2 77 +18 +18 1017.6 977.6
20 16.09 н/о н/о
21 16.09 н/о н/о
22 16.09 н/о н/о
23 16.09 н/о н/о
00 17.09 н/о
01 17.09 н/о н/о
02 17.09 н/о н/о
03 17.09 н/о н/о
04 17.09 н/о н/о
05 17.09 н/о н/о
06 17.09 Ю 1 4000 м дымка 10/10 300 м
[St]
+10.5 +10.1 97 +10 +10 1019.0 978.0 +9.8
07 17.09 штиль 0 6000 м дымка 6/6 480 м
[St]
+13.0 +12.6 97 +12 +14 1018.6 978.0
08 17.09 В 1 20 км 1/1 1000 м
[Cu med, cong]
+18.1 +14.1 77 +19 +26 1017.7 977.9
09 17.09 СВ 1 20 км 3/0
[Ac trans]
+22.2 +14.0 60 +25 +34 комфорт 1016.7 977.4
10 17.09 В 1 20 км 1/0
[Ac trans]
+25.3 +14.8 52 +28 +40 жарко 1015.1 976.3
11 17.09 В 1 20 км ясно +28.0 +15.4 46 +31 +44 душно 1013.8 975.4
12 17.09 ЮВ 1 20 км 1/1 1000 м
[Cu med, cong]
+30.7 +15.5 40 +33 +44 душно 1012.2 974.2
13 17.09 В 2 20 км 1/1 1000 м
[Cu med, cong]
+31.9 +13.6 33 +33 +41 жарко 1011.3 973.4
14 17.09 В 2 н/о н/о +32.5 +14.8 34 +34 +34 очень
жарко
1010.6 972.9
15 17.09 Ю 1 н/о н/о +32.4 +16.2 38 +35 +35 душно 1010.2 972.4
16 17.09 З 1 н/о н/о +29.8 +16.9 46 +33 +33 душно 1010.6 972.6
17 17.09 Ю 1 н/о н/о +24.8 +18.0 66 +29 +29 душно 1011.5 972.8
18 17.09 Ю 2 н/о н/о +21.0 +15.8 72 +25 +25 комфорт 1012.8 973.5 +32.7
19 17.09 Ю 2 н/о н/о +18.6 +14.7 78 +20 +20 1013.6 974.0
20 17.09 Ю 2 н/о н/о +17.1 +14.0 82 +17 +17 1014.2 974.3
21 17.09 н/о н/о
22 17.09 н/о н/о
23 17.09 н/о н/о
00 18.09 н/о
01 18.09 н/о н/о
02 18.09 н/о н/о
03 18.09 н/о н/о
04 18.09 н/о н/о
05 18.09 н/о н/о
06 18.09 С 1 10 км 10/10 800 м
[Cu Sc]
+15.9 +13.3 85 +17 +17 1019.3 979.1 +14.3
07 18.09 С 2 10 км 10/10 800 м
[Cu Sc]
+15.8 +13.1 84 +16 +16 1020.1 979.9
08 18.09 С 2 10 км 10/10 800 м
[Cu Sc]
+15.3 +12.5 83 +15 +15 1021.4 981.0
09 18.09 С 2 10 км слаб. дождь 10/10 800 м
[Cu Sc]
+14.4 +11.8 84 +14 +14 1022.4 981.9
10 18.09 С 1 10 км слаб. дождь 10/10 800 м
[Cu Sc]
+14.2 +11.9 86 +15 +15 1023.0 982.4
11 18.09 СЗ 1 10 км в посл. час дождь 10/10 800 м
[Cu Sc]
+14.2 +11.9 86 +15 +15 1023.4 982.8
12 18.09 С 1 10 км слаб. дождь 10/10 800 м
[Cu Sc]
+14.0 +11.7 86 +14 +14 1024.0 983.3 0.2

 

Местоположение метеостанции Зеница (Босния и Герцеговина): широта 44.22 долгота 17.90 высота над уровнем моря 348 м.

В архиве по умолчанию представлена погода в Зенице за последнюю неделю. Архивные данные за месяц целиком и за предыдущие месяцы, начиная с января 2011 года, Вы можете получить, выбрав интересующий диапазон дат из раскрывающегося списка и нажав кнопку "Ввод!".


*Определитесь, кто Вы:
робот инопланетянин человек

Внимание! Время в таблицах - всемирное. Для получения местного времени необходимо прибавить поправку, которая равна 1 ч.

Смотрите также архив погоды в соседних городах и на ближайших метеорологических станциях:

Погода в Бугойно (Босния и Герцеговина) (38 км)
Погода в Иван-Седле (Босния и Герцеговина) (51 км)
Погода в Яйце (Босния и Герцеговина) (52 км)
Погода в Сараево (Босния и Герцеговина) (58 км)
Погода на Белашнице (Босния и Герцеговина) (63 км)
Погода в Тузле (Босния и Герцеговина) (73 км)
Погода в Баня-Луке (Босния и Герцеговина) (82 км)
Погода в Ливно (Босния и Герцеговина) (83 км)
Погода в Градачаце (Босния и Герцеговина) (85 км)
Погода в Мостаре (Босния и Герцеговина) (97 км)

Пояснения к столбцам:

Ветер - указаны скорость ветра в м/с - средняя за 10 мин, порывы в срок и между сроками (в фигурных скобках) и направление, откуда дует ветер: С - северный, СВ - северо-восточный, В - восточный, ЮВ - юго-восточный, Ю - южный, ЮЗ - юго-западный, З - западный, СЗ - северо-западный.
Видимость - горизонтальная дальность видимости в метрах или километрах. При видимости от 1 до 10 км при отсутствии осадков обычно наблюдается дымка, при ухудшении видимости до 1 км и менее - туман. В сухую погоду видимость может ухудшаться дымом, пылью или мглою.
Явления - указаны атмосферные явления, наблюдавшиеся в срок или в последний час перед сроком; фигурными скобками обозначены явления, наблюдавшиеся между сроками (за 1-3 часа до срока); квадратными скобками обозначены град или гололедные отложения с указанием их диаметра в мм.
Облачность - указаны через наклонную черту общая и нижняя облачность в баллах и высота нижней границы облаков в метрах; квадратными скобками обозначены формы облаков: Ci - перистые, Cs - перисто-слоистые, Cc - перисто-кучевые, Ac - высококучевые, As - высокослоистые, Sc - слоисто-кучевые, Ns - слоисто-дождевые, Cu - кучевые, Cb - кучево-дождевые. Подробнее классификацию облаков см. в Атласе облаков (PDF).
T - Температура воздуха - температура, измеренная на высоте 2 м над землей.
Td - Температура точки росы - температура, при понижении до которой содержащийся в воздухе водяной пар достигнет насыщения.
f - Относительная влажность воздуха - влажноcть воздуха, измеренная на высоте 2 м над землей.
Te - Эффективная температура - температура, которую ощущает одетый по сезону человек в тени. Характеристика душности погоды. При расчете учитывается влияние влажности воздуха и скорости ветра на теплоощущения человека.
Tes - Эффективная температура на солнце - температура, которую ощущает человек, с поправкой на солнечный нагрев. Характеристика знойности погоды. Зависит от высоты солнца над горизонтом, облачности и скорости ветра. Ночью, в пасмурную погоду, а также при ветре 12 м/с и более поправка равна нулю.
P - Атмосферное давление - приведенное к уровню моря атмосферное давление.
Po - Атмосферное давление - измеренное на уровне метеостанции атмосферное давление.
Tmin - Минимальная температура - минимум температуры воздуха на высоте 2 м над землей.
Tmax - Максимальная температура - максимум температуры воздуха на высоте 2 м над землей.
R - Количество осадков - Количество выпавших осадков за период времени, мм. При наведении курсора мыши на число - период времени, за который выпало указанное количество осадков.
R24 - Количество осадков - Количество выпавших осадков за 24 часа, мм.
S - Снежный покров - Высота снежного покрова, см. При наведении курсора мыши на число - состояние снежного покрова и степень покрытия местности в баллах.